Location: Cosy Dell
(34.2789°N, 117.4537°W)
Time: 21:17:21
(UTC+00:00)

Cosmos 2082 Rocket - Pass Details

Date: 14 July 2020
Orbit: 834 x 853 km, 71.0° (Epoch: 13 August)

Event Time Altitude Azimuth Distance (km) Brightness Sun altitude
Exits shadow 09:10:11 31° 93° (E) 1,453 3.5 -31.4°
Drops below altitude 10° 09:14:37 10° 42° (NE) 2,483 5.4 -31.1°
Sets 09:17:18 0° 33° (NNE) 3,422 6.5 -30.9°
